DAL276 MDPC-TISX

Flight info

Callsign DAL276
Flight time 0h 40m
Altitude 31000
Route MELLA3T MELLA G633 MAZ RTE12 JOSHE RTE4 VEDAS G633 SNOOZ
Aircraft A319/M-SDE3FGHIRWY/LB1

Departure

Time 2026-05-04 22:51
Airport Punta Cana International Airport (MDPC)

Arrival

Time 2026-05-04 23:32
Airport Henry E. Rohlsen Airport (TISX)
Time Latitude Longitude Altitude Speed Heading
2026-05-04 22:17 18.56300 -68.37086 50 ft 0 kts 265°
2026-05-04 22:38 18.56300 -68.37083 50 ft 3 kts 265°
2026-05-04 22:38 18.56302 -68.37055 50 ft 4 kts 264°
2026-05-04 22:39 18.56306 -68.37028 50 ft 4 kts 255°
2026-05-04 22:39 18.56314 -68.37002 48 ft 4 kts 261°
2026-05-04 22:39 18.56313 -68.36986 50 ft 0 kts 320°
2026-05-04 22:41 18.56334 -68.37000 48 ft 8 kts 336°
2026-05-04 22:41 18.56423 -68.37010 47 ft 17 kts 352°
2026-05-04 22:41 18.56505 -68.36952 51 ft 16 kts 76°
2026-05-04 22:42 18.56517 -68.36832 51 ft 17 kts 84°
2026-05-04 22:42 18.56589 -68.36757 49 ft 16 kts
2026-05-04 22:42 18.56697 -68.36755 53 ft 15 kts
2026-05-04 22:42 18.56803 -68.36755 52 ft 16 kts 356°
2026-05-04 22:43 18.56888 -68.36739 49 ft 12 kts 59°
2026-05-04 22:43 18.56903 -68.36643 51 ft 17 kts 84°
2026-05-04 22:43 18.56917 -68.36495 51 ft 22 kts 85°
2026-05-04 22:43 18.56930 -68.36333 51 ft 22 kts 85°
2026-05-04 22:44 18.56945 -68.36167 50 ft 23 kts 84°
2026-05-04 22:44 18.56959 -68.35999 50 ft 23 kts 85°
2026-05-04 22:44 18.56973 -68.35844 50 ft 15 kts 81°
2026-05-04 22:44 18.57045 -68.35813 48 ft 13 kts 358°
2026-05-04 22:45 18.57145 -68.35819 51 ft 15 kts 356°
2026-05-04 22:45 18.57355 -68.35832 51 ft 15 kts 357°
2026-05-04 22:45 18.57453 -68.35842 51 ft 11 kts 348°
2026-05-04 22:46 18.57524 -68.35840 51 ft 11 kts 37°
2026-05-04 22:46 18.57550 -68.35768 51 ft 11 kts 73°
2026-05-04 22:46 18.57572 -68.35690 48 ft 11 kts 73°
2026-05-04 22:46 18.57595 -68.35607 49 ft 12 kts 73°
2026-05-04 22:47 18.57620 -68.35519 51 ft 13 kts 69°
2026-05-04 22:47 18.57665 -68.35467 51 ft 4 kts 17°
2026-05-04 22:47 18.57689 -68.35466 48 ft 2 kts 352°
2026-05-04 22:47 18.57714 -68.35472 50 ft 6 kts 347°
2026-05-04 22:48 18.57764 -68.35486 50 ft 8 kts 343°
2026-05-04 22:48 18.57798 -68.35513 49 ft 5 kts 272°
2026-05-04 22:48 18.57793 -68.35532 50 ft 0 kts 254°
2026-05-04 22:50 18.57789 -68.35549 50 ft 13 kts 254°
2026-05-04 22:50 18.57686 -68.35916 51 ft 89 kts 253°
2026-05-04 22:50 18.57451 -68.36769 47 ft 150 kts 253°
2026-05-04 22:51 18.57139 -68.37924 426 ft 167 kts 250°
2026-05-04 22:51 18.56827 -68.39108 1083 ft 166 kts 251°
2026-05-04 22:51 18.56505 -68.40278 1800 ft 168 kts 249°
2026-05-04 22:51 18.56155 -68.41523 2231 ft 187 kts 249°
2026-05-04 22:52 18.55428 -68.42699 2511 ft 203 kts 210°
2026-05-04 22:52 18.54020 -68.43028 2848 ft 222 kts 173°
2026-05-04 22:52 18.52445 -68.42691 3368 ft 243 kts 163°
2026-05-04 22:52 18.50801 -68.42160 4208 ft 250 kts 160°
2026-05-04 22:53 18.49120 -68.41576 5067 ft 257 kts 159°
2026-05-04 22:53 18.47395 -68.40984 5961 ft 262 kts 160°
2026-05-04 22:53 18.45634 -68.40403 6690 ft 268 kts 161°
2026-05-04 22:53 18.43837 -68.39834 7462 ft 271 kts 162°
2026-05-04 22:54 18.42008 -68.39266 8284 ft 276 kts 161°
2026-05-04 22:54 18.40276 -68.38381 9084 ft 280 kts 145°
2026-05-04 22:54 18.38865 -68.36957 9878 ft 286 kts 128°
2026-05-04 22:54 18.37831 -68.35137 10317 ft 303 kts 120°
2026-05-04 22:55 18.36794 -68.33104 10526 ft 327 kts 119°
2026-05-04 22:55 18.35698 -68.30924 10838 ft 345 kts 119°
2026-05-04 22:55 18.34562 -68.28660 11407 ft 352 kts 119°
2026-05-04 22:55 18.33411 -68.26374 12032 ft 356 kts 118°
2026-05-04 22:56 18.32237 -68.24048 12649 ft 362 kts 119°
2026-05-04 22:56 18.31045 -68.21696 13255 ft 367 kts 118°
2026-05-04 22:56 18.29832 -68.19306 13848 ft 371 kts 118°
2026-05-04 22:56 18.28606 -68.16890 14364 ft 377 kts 118°
2026-05-04 22:57 18.27378 -68.14469 14899 ft 381 kts 118°
2026-05-04 22:57 18.26121 -68.12001 15413 ft 386 kts 118°
2026-05-04 22:57 18.24839 -68.09488 15891 ft 392 kts 118°
2026-05-04 22:57 18.23545 -68.06952 16419 ft 396 kts 118°
2026-05-04 22:58 18.22233 -68.04388 16934 ft 401 kts 118°
2026-05-04 22:58 18.21086 -68.01700 17509 ft 404 kts 108°
2026-05-04 22:58 18.20425 -67.98821 18058 ft 407 kts 97°
2026-05-04 22:58 18.20280 -67.95845 18562 ft 409 kts 86°
2026-05-04 22:59 18.20489 -67.92847 19055 ft 412 kts 84°
2026-05-04 22:59 18.20705 -67.89842 19565 ft 414 kts 85°
2026-05-04 22:59 18.20916 -67.86809 20039 ft 418 kts 85°
2026-05-04 22:59 18.21125 -67.83751 20550 ft 420 kts 85°
2026-05-04 23:00 18.21330 -67.80717 21041 ft 423 kts 86°
2026-05-04 23:00 18.21538 -67.77610 21512 ft 426 kts 86°
2026-05-04 23:00 18.21745 -67.74494 22031 ft 427 kts 87°
2026-05-04 23:00 18.21951 -67.71370 22488 ft 429 kts 86°
2026-05-04 23:01 18.22159 -67.68230 22965 ft 431 kts 87°
2026-05-04 23:01 18.22370 -67.65079 23439 ft 432 kts 88°
2026-05-04 23:01 18.22581 -67.61923 23839 ft 434 kts 87°
2026-05-04 23:01 18.22793 -67.58751 24170 ft 436 kts 87°
2026-05-04 23:02 18.23006 -67.55557 24488 ft 439 kts 87°
2026-05-04 23:02 18.23222 -67.52343 24825 ft 441 kts 87°
2026-05-04 23:02 18.23434 -67.49155 25139 ft 443 kts 88°
2026-05-04 23:02 18.23648 -67.45914 25458 ft 446 kts 87°
2026-05-04 23:03 18.23865 -67.42653 25775 ft 448 kts 87°
2026-05-04 23:03 18.24081 -67.39365 26081 ft 451 kts 86°
2026-05-04 23:03 18.24295 -67.36067 26393 ft 453 kts 86°
2026-05-04 23:03 18.24510 -67.32737 26671 ft 456 kts 86°
2026-05-04 23:04 18.24725 -67.29392 26997 ft 458 kts 86°
2026-05-04 23:04 18.24941 -67.26038 27277 ft 461 kts 86°
2026-05-04 23:04 18.25159 -67.22660 27572 ft 463 kts 86°
2026-05-04 23:04 18.25376 -67.19272 27884 ft 465 kts 86°
2026-05-04 23:05 18.25593 -67.15906 28166 ft 467 kts 86°
2026-05-04 23:05 18.25603 -67.12486 28460 ft 469 kts 91°
2026-05-04 23:05 18.25532 -67.09034 28707 ft 472 kts 91°
2026-05-04 23:05 18.25458 -67.05572 29008 ft 473 kts 91°
2026-05-04 23:06 18.25385 -67.02098 29253 ft 476 kts 90°
2026-05-04 23:06 18.25315 -66.98600 29497 ft 479 kts 90°
2026-05-04 23:06 18.25246 -66.95101 29778 ft 480 kts 90°
2026-05-04 23:06 18.25177 -66.91619 30011 ft 483 kts 90°
2026-05-04 23:07 18.25103 -66.88091 30274 ft 484 kts 90°
2026-05-04 23:07 18.25023 -66.84541 30485 ft 486 kts 90°
2026-05-04 23:07 18.24940 -66.80986 30705 ft 487 kts 91°
2026-05-04 23:07 18.24858 -66.77413 30957 ft 488 kts 90°
2026-05-04 23:08 18.24705 -66.70342 31065 ft 476 kts 90°
2026-05-04 23:08 18.24548 -66.63403 31062 ft 472 kts 91°
2026-05-04 23:09 18.24386 -66.56536 31060 ft 473 kts 90°
2026-05-04 23:09 18.23730 -66.49695 31068 ft 471 kts 104°
2026-05-04 23:10 18.21345 -66.43286 31029 ft 472 kts 114°
2026-05-04 23:10 18.20001 -66.40132 30681 ft 472 kts 114°
2026-05-04 23:10 18.19116 -66.38051 30457 ft 472 kts 113°
2026-05-04 23:11 18.17779 -66.34895 30114 ft 472 kts 113°
2026-05-04 23:11 18.16449 -66.31742 29520 ft 469 kts 113°
2026-05-04 23:11 18.15134 -66.28619 28794 ft 466 kts 114°
2026-05-04 23:11 18.13822 -66.25517 28077 ft 462 kts 114°
2026-05-04 23:12 18.12517 -66.22449 27392 ft 458 kts 114°
2026-05-04 23:12 18.11217 -66.19408 26720 ft 454 kts 114°
2026-05-04 23:12 18.09929 -66.16395 26050 ft 450 kts 115°
2026-05-04 23:12 18.08657 -66.13403 25395 ft 446 kts 115°
2026-05-04 23:13 18.07397 -66.10441 24743 ft 442 kts 115°
2026-05-04 23:13 18.06150 -66.07501 24101 ft 438 kts 115°
2026-05-04 23:13 18.04909 -66.04587 23429 ft 435 kts 115°
2026-05-04 23:13 18.03678 -66.01700 22787 ft 430 kts 115°
2026-05-04 23:14 18.02466 -65.98856 22225 ft 424 kts 115°
2026-05-04 23:14 18.01281 -65.96078 21682 ft 420 kts 115°
2026-05-04 23:14 18.00087 -65.93285 21164 ft 417 kts 115°
2026-05-04 23:14 17.98901 -65.90514 20649 ft 415 kts 114°
2026-05-04 23:15 17.97913 -65.87680 20164 ft 412 kts 105°
2026-05-04 23:15 17.97288 -65.84753 19671 ft 410 kts 102°
2026-05-04 23:15 17.96696 -65.81835 19187 ft 407 kts 101°
2026-05-04 23:15 17.96106 -65.78932 18701 ft 405 kts 101°
2026-05-04 23:16 17.95519 -65.76048 18179 ft 404 kts 101°
2026-05-04 23:16 17.94934 -65.73174 17644 ft 401 kts 101°
2026-05-04 23:16 17.94349 -65.70323 17132 ft 398 kts 102°
2026-05-04 23:16 17.93765 -65.67493 16615 ft 395 kts 102°
2026-05-04 23:17 17.93190 -65.64723 16092 ft 392 kts 102°
2026-05-04 23:17 17.92624 -65.61983 15949 ft 375 kts 102°
2026-05-04 23:17 17.92083 -65.59378 15827 ft 357 kts 102°
2026-05-04 23:17 17.91564 -65.56881 15699 ft 341 kts 102°
2026-05-04 23:18 17.91068 -65.54481 15499 ft 329 kts 102°
2026-05-04 23:18 17.90594 -65.52185 15380 ft 316 kts 102°
2026-05-04 23:18 17.90142 -65.49978 15259 ft 303 kts 102°
2026-05-04 23:18 17.89707 -65.47861 15108 ft 292 kts 102°
2026-05-04 23:19 17.89277 -65.45791 14834 ft 287 kts 102°
2026-05-04 23:19 17.88855 -65.43753 14521 ft 284 kts 102°
2026-05-04 23:19 17.88436 -65.41736 14209 ft 281 kts 102°
2026-05-04 23:19 17.88019 -65.39740 13906 ft 278 kts 102°
2026-05-04 23:20 17.87614 -65.37793 13490 ft 275 kts 103°
2026-05-04 23:20 17.87209 -65.35837 13023 ft 273 kts 103°
2026-05-04 23:20 17.86810 -65.33903 12519 ft 272 kts 103°
2026-05-04 23:20 17.86408 -65.31963 12039 ft 271 kts 103°
2026-05-04 23:21 17.86012 -65.30049 11667 ft 265 kts 103°
2026-05-04 23:21 17.85626 -65.28188 11341 ft 257 kts 103°
2026-05-04 23:21 17.85249 -65.26378 11018 ft 250 kts 104°
2026-05-04 23:21 17.84880 -65.24615 10706 ft 245 kts 104°
2026-05-04 23:22 17.84517 -65.22877 10389 ft 241 kts 104°
2026-05-04 23:22 17.84161 -65.21156 10073 ft 241 kts 103°
2026-05-04 23:22 17.83808 -65.19444 9730 ft 239 kts 103°
2026-05-04 23:22 17.83458 -65.17754 9402 ft 235 kts 104°
2026-05-04 23:23 17.83115 -65.16109 9085 ft 232 kts 104°
2026-05-04 23:23 17.82773 -65.14470 8763 ft 228 kts 104°
2026-05-04 23:23 17.82436 -65.12852 8451 ft 225 kts 104°
2026-05-04 23:23 17.82104 -65.11261 8133 ft 221 kts 103°
2026-05-04 23:24 17.81743 -65.09714 7813 ft 216 kts 111°
2026-05-04 23:24 17.81009 -65.08374 7497 ft 210 kts 129°
2026-05-04 23:24 17.79927 -65.07379 7189 ft 206 kts 147°
2026-05-04 23:24 17.78707 -65.06609 6877 ft 203 kts 148°
2026-05-04 23:25 17.77506 -65.05843 6566 ft 201 kts 147°
2026-05-04 23:25 17.76315 -65.05081 6241 ft 200 kts 147°
2026-05-04 23:25 17.75134 -65.04324 5912 ft 197 kts 146°
2026-05-04 23:25 17.73974 -65.03582 5602 ft 195 kts 147°
2026-05-04 23:26 17.72823 -65.02846 5291 ft 193 kts 146°
2026-05-04 23:26 17.71681 -65.02116 4982 ft 191 kts 146°
2026-05-04 23:26 17.70564 -65.01401 4680 ft 189 kts 146°
2026-05-04 23:26 17.69457 -65.00693 4359 ft 183 kts 146°
2026-05-04 23:27 17.68551 -64.99820 4059 ft 175 kts 121°
2026-05-04 23:27 17.68271 -64.98611 3774 ft 171 kts 89°
2026-05-04 23:27 17.68398 -64.97377 3496 ft 169 kts 86°
2026-05-04 23:27 17.68526 -64.96158 3208 ft 166 kts 86°
2026-05-04 23:28 17.68650 -64.94965 2928 ft 164 kts 86°
2026-05-04 23:28 17.68773 -64.93781 2649 ft 163 kts 87°
2026-05-04 23:28 17.68896 -64.92601 2372 ft 163 kts 87°
2026-05-04 23:28 17.69017 -64.91421 2091 ft 162 kts 88°
2026-05-04 23:29 17.69135 -64.90258 1827 ft 155 kts 87°
2026-05-04 23:29 17.69247 -64.89184 1559 ft 141 kts 87°
2026-05-04 23:29 17.69350 -64.88201 1346 ft 132 kts 88°
2026-05-04 23:29 17.69446 -64.87269 1185 ft 127 kts 88°
2026-05-04 23:30 17.69540 -64.86349 1014 ft 128 kts 86°
2026-05-04 23:30 17.69631 -64.85445 868 ft 125 kts 88°
2026-05-04 23:30 17.69724 -64.84520 691 ft 128 kts 86°
2026-05-04 23:30 17.69813 -64.83593 538 ft 126 kts 88°
2026-05-04 23:31 17.69915 -64.82661 347 ft 127 kts 86°
2026-05-04 23:31 17.70004 -64.81740 137 ft 126 kts 87°
2026-05-04 23:31 17.70082 -64.80900 87 ft 90 kts 84°
2026-05-04 23:31 17.70135 -64.80404 73 ft 59 kts 83°
2026-05-04 23:32 17.70174 -64.80039 80 ft 34 kts 85°
2026-05-04 23:32 17.70171 -64.79930 80 ft 12 kts 108°
2026-05-04 23:32 17.70139 -64.79851 83 ft 11 kts 112°
2026-05-04 23:32 17.70112 -64.79784 86 ft 9 kts 114°
2026-05-04 23:33 17.70089 -64.79721 87 ft 10 kts 110°
2026-05-04 23:33 17.70070 -64.79650 85 ft 10 kts 90°
2026-05-04 23:33 17.70028 -64.79630 85 ft 8 kts 174°
2026-05-04 23:33 17.69989 -64.79627 88 ft 4 kts 174°
2026-05-04 23:34 17.69983 -64.79627 85 ft 0 kts 174°